Content
SEND FEEDBACK

Daily
Averages
Monthly
Summary
United States of America

PONCHA SPRINGS, COLORADO


Home > North America > United States > Colorado
Elevation: 2195 meters     Latitude: 38 32N     Longitude: 106 00W

WEATHER
 
SELECT A DAY
Number of Records: 83,775;   Date Range: 10/4/10 - 7/19/14
 
SHARE

PRINT THIS DATA

[ ← Previous Day ]
WEATHER ALMANAC - 13 FEBRUARY, 2013
[ Next Day → ]
[ °F ]   °C
Weather ElementAverageHighLow
Temperature-1.9 °C5.8 °C (3:15 pm)-9.2 °C (4:15 am)
Dewpoint-12.4 °C-10.1 °C (6:55 pm)-15 °C (4:55 am)
Humidity46.4 %65 % (4:15 am)30 % (2:55 pm)
Barometer1019.6 hPa1021 hPa (1:55 am)1017.3 hPa (2:35 pm)
Wind Speed15.8 km/h31.5 km/h (2:15 pm)
Wind Gust44.4 km/h (4:35 pm)
Weather ElementAverage
Visibility16.1 km
Wind DirectionWNW (279.4 °)

Weather ElementTotal
Precipitation---
Heating Degree Days20.1 (Base 18.3)
Averaged from 71 records on 13 February, 2013
WEATHER CONDITIONS BREAKOUT
WIND DIRECTION BREAKOUT
WEATHER BY HOUR - 13 FEBRUARY, 2013
[ °F ]   °C
Local TimeTemperatureDewpointHumidityBarometerVisibilityWind DirectionWind SpeedGust SpeedPrecipitationEventsConditions
12:35 AM-5.2 °C-14.6 °C48 %1020.3 hPa16.1 kmNW (320°)24.1 km/hClear
12:55 AM-5.4 °C-14.7 °C49 %1020.3 hPa16.1 kmNW (320°)16.7 km/hClear
1:15 AM-6.3 °C-14.5 °C53 %1020.3 hPa16.1 kmWNW (290°)14.8 km/hClear
1:35 AM-5 °C-14.4 °C48 %1020.7 hPa16.1 kmWest (270°)14.8 km/h25.9 km/hClear
1:55 AM-6.7 °C-14.5 °C55 %1021 hPa16.1 kmNW (320°)18.5 km/hClear
2:15 AM-7.3 °C-14.3 °C58 %1021 hPa16.1 kmWSW (240°)11.1 km/hClear
2:35 AM-6.9 °C-14.5 °C55 %1021 hPa16.1 kmWest (260°)14.8 km/hClear
2:55 AM-6.8 °C-14.4 °C55 %1020.3 hPa16.1 kmWest (260°)14.8 km/hClear
3:15 AM-7.8 °C-14.7 °C58 %1020.3 hPa16.1 kmWNW (300°)11.1 km/hScattered Clouds
3:35 AM-8 °C-14.5 °C60 %1020 hPa16.1 kmWest (280°)9.3 km/hScattered Clouds
3:55 AM-7.6 °C-14.6 °C58 %1019.6 hPa16.1 kmNNW (330°)7.4 km/hClear
4:15 AM-9.2 °C-14.7 °C65 %1019.6 hPa16.1 kmWNW (300°)13 km/hClear
4:35 AM-8 °C-14.6 °C60 %1020 hPa16.1 kmWNW (290°)9.3 km/hClear
4:55 AM-9.1 °C-15 °C63 %1019.6 hPa16.1 kmWest (280°)13 km/hClear
5:15 AM-8.6 °C-14.9 °C61 %1020 hPa16.1 kmWNW (300°)11.1 km/hClear
5:35 AM-8.1 °C-14.9 °C59 %1020 hPa16.1 kmNNW (330°)14.8 km/hClear
5:55 AM-7.6 °C-14.7 °C57 %1020 hPa16.1 kmNW (320°)13 km/hClear
6:15 AM-7.8 °C-14.7 °C58 %1020.3 hPa16.1 kmWNW (300°)11.1 km/hClear
6:35 AM-8.1 °C-14.8 °C59 %1020.3 hPa16.1 kmWNW (300°)16.7 km/hClear
6:55 AM-7 °C-14.7 °C55 %1020.3 hPa16.1 kmNW (320°)13 km/hClear
7:15 AM-7.4 °C-14.6 °C57 %1020.7 hPa16.1 kmWNW (290°)20.4 km/h27.8 km/hClear
7:35 AM-6.1 °C-14.3 °C53 %1020.3 hPa16.1 kmWest (270°)13 km/hClear
7:55 AM-4.9 °C-14.1 °C49 %1020.3 hPa16.1 kmWNW (300°)18.5 km/hClear
8:15 AM-5.8 °C-14.1 °C53 %1020 hPa16.1 kmNNW (330°)16.7 km/hClear
8:35 AM-4.9 °C-13.5 °C52 %1020.3 hPa16.1 kmNW (320°)14.8 km/hClear
8:55 AM-4.1 °C-13.3 °C49 %1020.3 hPa16.1 kmNNW (340°)14.8 km/h20.4 km/hClear
9:15 AM-2.8 °C-13.3 °C45 %1020.7 hPa16.1 kmNNW (340°)16.7 km/hClear
9:35 AM-1.5 °C-13.5 °C40 %1020.3 hPa16.1 kmNorth (360°)14.8 km/hClear
9:55 AM-0.5 °C-13.4 °C38 %1020.3 hPa16.1 kmNW (320°)9.3 km/hClear
10:15 AM-0.8 °C-13.1 °C39 %1019.6 hPa16.1 kmNNW (340°)14.8 km/hClear
10:35 AM0.1 °C-13.1 °C37 %1019.3 hPa16.1 kmNNW (340°)18.5 km/h25.9 km/hClear
10:55 AM0.9 °C-12.8 °C36 %1019 hPa16.1 kmNorth (350°)16.7 km/hClear
11:15 AM1.1 °C-12.7 °C36 %1019 hPa16.1 kmNNW (340°)9.3 km/hClear
11:35 AM1.7 °C-12.4 °C35 %1018.3 hPa16.1 kmWSW (250°)14.8 km/hClear
11:55 AM2.6 °C-11.6 °C35 %1018.3 hPa16.1 kmNW (320°)14.8 km/hClear
12:15 PM3.6 °C-11.5 °C33 %1018.3 hPa16.1 kmWSW (240°)25.9 km/h31.5 km/hClear
12:35 PM4 °C-11.4 °C32 %1018.3 hPa16.1 kmSSW (210°)18.5 km/h37 km/hClear
12:55 PM3.9 °C-10.8 °C34 %1018.3 hPa16.1 kmSSW (200°)20.4 km/h35.2 km/hClear
1:15 PM5 °C-10.7 °C32 %1017.9 hPa16.1 kmSW (230°)22.2 km/h38.9 km/hClear
1:35 PM5 °C-10.7 °C32 %1017.9 hPa16.1 kmWSW (250°)24.1 km/h37 km/hClear
1:55 PM4.8 °C-10.3 °C33 %1017.6 hPa16.1 kmWest (260°)29.6 km/h40.7 km/hClear
2:15 PM4.7 °C-10.9 °C32 %1017.6 hPa16.1 kmWest (260°)31.5 km/hClear
2:35 PM5.7 °C-10.2 °C31 %1017.3 hPa16.1 kmSW (220°)20.4 km/h35.2 km/hClear
2:55 PM5.2 °C-11 °C30 %1017.3 hPa16.1 kmSSW (200°)25.9 km/h33.3 km/hClear
3:15 PM5.8 °C-10.8 °C30 %1017.3 hPa16.1 kmSSW (210°)18.5 km/h27.8 km/hClear
3:35 PM5.5 °C-11.1 °C30 %1017.9 hPa16.1 kmSSW (210°)16.7 km/h31.5 km/hClear
3:55 PM4.6 °C-11.4 °C31 %1018.3 hPa16.1 kmWest (260°)29.6 km/h40.7 km/hClear
4:15 PM4 °C-11.3 °C32 %1018.3 hPa16.1 kmWest (260°)24.1 km/h42.6 km/hClear
4:35 PM3.4 °C-11.3 °C34 %1018.3 hPa16.1 kmWest (260°)31.5 km/h44.4 km/hClear
4:55 PM2.5 °C-10.9 °C37 %1018.3 hPa16.1 kmWest (260°)24.1 km/h38.9 km/hClear
5:15 PM1.8 °C-10.8 °C39 %1018.6 hPa16.1 kmWSW (250°)16.7 km/h27.8 km/hClear
5:35 PM1.1 °C-10.5 °C42 %1019 hPa16.1 kmWest (260°)16.7 km/h22.2 km/hClear
5:55 PM0.8 °C-10.5 °C43 %1019 hPa11.3 kmWSW (250°)20.4 km/hClear
6:15 PM0.4 °C-10.4 °C45 %1019.3 hPa16.1 kmSW (230°)13 km/hClear
6:35 PM0 °C-10.4 °C46 %1019.6 hPa16.1 kmWest (260°)16.7 km/hClear
6:55 PM-0.4 °C-10.1 °C49 %1019.6 hPa16.1 kmWSW (240°)11.1 km/hClear
7:15 PM-1.1 °C-10.2 °C51 %1020 hPa16.1 kmSW (230°)14.8 km/hClear
7:35 PM-0.1 °C-10.3 °C47 %1020.3 hPa16.1 kmSW (230°)13 km/hClear
7:55 PM-0.8 °C-10.2 °C50 %1020.3 hPa16.1 kmWest (280°)11.1 km/hClear
8:15 PM-0.6 °C-10.5 °C48 %1020.3 hPa16.1 kmWSW (240°)11.1 km/hClear
8:35 PM-0.6 °C-10.7 °C47 %1020.3 hPa16.1 kmWSW (250°)7.4 km/hClear
8:55 PM-1.2 °C-10.6 °C49 %1020.3 hPa16.1 kmWest (260°)11.1 km/hClear
9:15 PM-1.1 °C-10.5 °C49 %1020 hPa16.1 kmWSW (240°)16.7 km/h25.9 km/hClear
9:35 PM-1.6 °C-10.5 °C51 %1020 hPa16.1 kmWest (260°)16.7 km/hClear
9:55 PM-1.7 °C-10.8 °C50 %1020 hPa16.1 kmWest (270°)9.3 km/h27.8 km/hClear
10:15 PM-3.4 °C-11 °C56 %1020 hPa16.1 kmWest (280°)9.3 km/hClear
10:35 PM-4.1 °C-11.4 °C57 %1020 hPa16.1 kmWNW (300°)5.6 km/hClear
10:55 PM-3.3 °C-11.7 °C53 %1020 hPa16.1 kmNNW (330°)7.4 km/hClear
11:15 PM-2.7 °C-11.6 °C51 %1020 hPa16.1 kmNNW (330°)9.3 km/hClear
11:35 PM-2.5 °C-11.8 °C49 %1020 hPa16.1 kmNW (310°)7.4 km/hClear
11:55 PM-2.9 °C-11.8 °C51 %1020 hPa16.1 kmWest (270°)9.3 km/hClear
Hourly data recorded from KANK, located 0 kilometers away from Poncha Springs, Colorado







STORIES FROM OUR PARTNERS